Location: ??????
(41.3164°N, 22.6615°E)
Time: 10:14:27
(UTC+00:00)

Oscar 19 - Visible Passes

Search period start: 30 June 2022 00:00
Search period end: 10 July 2022 00:00
Orbit: 772 x 790 km, 98.8° (Epoch: 29 June)

Date Brightness Start Highest point End Pass type
(mag) Time Alt. Az. Time Alt. Az. Time Alt. Az.
30 Jun 12.7 01:00:47 10° NE 01:04:38 21° E 01:08:27 10° SE visible
01 Jul 10.7 02:07:02 10° NNE 02:12:11 89° ESE 02:17:18 10° SSW visible
02 Jul 11.6 01:35:12 10° NNE 01:40:06 44° E 01:44:59 10° S visible
03 Jul 12.7 01:03:54 10° NE 01:07:53 22° E 01:11:49 10° SE visible
04 Jul 13.3 00:34:24 10° ENE 00:35:29 11° E 00:36:35 10° ESE visible
04 Jul 10.6 02:10:15 10° NNE 02:15:24 86° WNW 02:20:31 10° SSW visible
05 Jul 11.5 01:38:23 10° NNE 01:43:21 47° E 01:48:16 10° S visible
06 Jul 12.6 01:07:01 10° NE 01:11:07 24° E 01:15:12 10° SSE visible
07 Jul 13.2 00:37:05 10° ENE 00:38:45 11° E 00:40:25 10° ESE visible
07 Jul 10.6 02:13:29 10° NNE 02:18:37 81° WNW 02:23:44 10° SSW visible
08 Jul 11.4 01:41:34 10° NNE 01:46:34 50° E 01:51:32 10° S visible
09 Jul 12.5 01:10:09 10° NE 01:14:22 25° E 01:18:33 10° SSE visible
